Flag for United Kingdom Weather past 2 weeks in London, England, United Kingdom

Now
57 °F

Passing clouds.


Feels Like: 55 °F
Forecast: 45 / 69 °F
Wind: 8 mph from Northwest

Location: Northolt

Current Time: Aug 20, 2014 at 10:45:59 AM

Latest Report: Aug 20, 2014 at 9:50 AM


Visibility: N/A

Pressure: 30.04 "Hg

Humidity: 63%

Dew point: 45 °F

Location of LondonLocation

Historic Weather in London — Graph

°F

London temperature yesterday

Maximum temperature yesterday: 63 °F (at 1:50 PM)
Minimum temperature yesterday: 50 °F (at 5:50 AM)
Average temperature yesterday: 56 °F

Past Weeks' High & Low Weather Summary

 TemperatureHumidityPressure
High77 °F (Aug 6, 4:50 PM)100% (Aug 6, 4:50 AM)30.15 "Hg (Aug 6, 4:50 AM)
Low46 °F (Aug 20, 5:50 AM)38% (Aug 17, 3:50 PM)29.30 "Hg (Aug 10, 11:50 AM)
Average62 °F72%29.83 "Hg
* Reported Aug 5 8:50 AM — Aug 20 8:50 AM, London, Weather by CustomWeather, © 2014

Note: Actual official high and low records may vary slightly from our data, if they occured in-between our weather recording intervals... More about our weather records

Advertising

London weather history for previous 24 hours

 ConditionsComfort  
Time TempWeatherWind HumidityBarometerVisibility
8:50 AM
Aug 20
54 °FSunny.7 mph72%30.04 "Hg10 mi
7:50 AM50 °FSunny.5 mph82%30.04 "Hg10 mi
6:50 AM48 °FSunny.6 mph87%30.01 "Hg10 mi
5:50 AM46 °FClear.5 mph93%30.01 "HgN/A
4:50 AM48 °FPassing clouds.2 mph87%30.01 "HgN/A
3:50 AM48 °FPassing clouds.3 mph94%30.01 "HgN/A
2:50 AM48 °FPassing clouds.2 mph87%30.01 "HgN/A
1:50 AM50 °FClear.6 mph88%30.01 "Hg10 mi
12:50 AM48 °FClear.2 mph87%30.01 "Hg10 mi
11:50 PM
Aug 19
50 °FClear.2 mph82%30.01 "Hg10 mi
10:50 PM52 °FClear.5 mph77%30.01 "HgN/A
9:50 PM54 °FClear.3 mph72%29.98 "Hg10 mi
8:50 PM55 °FSunny.7 mph63%29.98 "Hg10 mi
7:50 PM57 °FPassing clouds.6 mph63%29.95 "HgN/A
6:50 PM61 °FPassing clouds.12 mph52%29.95 "HgN/A
5:50 PM61 °FPartly sunny.12 mph52%29.95 "HgN/A
4:50 PM61 °FScattered clouds.8 mph52%29.92 "HgN/A
3:50 PM61 °FScattered clouds.9 mph48%29.92 "HgN/A
2:50 PM63 °FSunny.8 mph45%29.92 "Hg10 mi
1:50 PM63 °FBroken clouds.9 mph49%29.92 "HgN/A
12:50 PM59 °FPartly sunny.13 mph51%29.92 "HgN/A
11:50 AM59 °FScattered clouds.14 mph51%29.92 "HgN/A
10:50 AM57 °FScattered clouds.14 mph55%29.92 "HgN/A
Weather by CustomWeather, © 2014

See weather overviewHow to use our weather pages